Tracking 34348 objects as of 9-Jun-2026
HD Live streaming from Space Station
objects crossing your sky now

DELTA 1 DEB

Track DELTA 1 DEB now!
10-day predictions


NORAD ID: 7182
Int'l Code: 1973-086ET
Perigee: 1,101.7 km
Apogee: 1,616.9 km
Inclination: 102.5 °
Period: 112.7 minutes
Semi major axis: 7730 km
RCS: 0.0751 m2 (small)
Launch date: November 6, 1973
Source: United States (US)
Launch site: AIR FORCE WESTERN TEST RANGE (AFWTR)

Note: This is SATELLITE DEBRIS
Your satellite tracking list
Your tracking list is empty




NASA's NSSDC Master Catalog

Two Line Element Set (TLE):
1  7182U 73086ET  26160.19564102  .00000400  00000-0  16446-2 0  9992
2  7182 102.5250 324.6499 0333219 249.0230 291.8441 12.77341132686902
Source of the keplerian elements: AFSPC